Home   Weather   Petah Tikva   Past weeks

Flag for Israel Past Weather in Petah Tikva, Israel — Yesterday and Last 2 Weeks

Now
81 °F

Sunny.


Feels Like: 81 °F
Forecast: 59 / 82 °F
Wind: 10 mph from Northwest

Location: Ben Gurion International Airport

Current Time: Apr 30, 2017 at 12:21:09 pm

Latest Report: Apr 30, 2017 at 11:50 am


Visibility: 10 mi

Pressure: 29.83 "Hg

Humidity: 45%

Dew Point: 57 °F

Location of Petah TikvaLocation

Past Weather in Petah Tikva — Graph

°F

Petah Tikva Temperature Yesterday

Maximum temperature yesterday: 79 °F (at 11:20 am)
Minimum temperature yesterday: 57 °F (at 2:50 am)
Average temperature yesterday: 68 °F

High & Low Weather Summary for the Past Weeks

 TemperatureHumidityPressure
High102 °F (Apr 22, 12:20 pm)88% (Apr 16, 11:50 pm)30.12 "Hg (Apr 16, 11:50 pm)
Low54 °F (Apr 17, 4:50 am)8% (Apr 22, 11:20 am)29.65 "Hg (Apr 22, 3:50 pm)
Average69 °F57%29.98 "Hg
* Reported Apr 15 11:20 am — Apr 30 11:20 am, Petah Tikva, Weather by CustomWeather, © 2017

Note: Actual official high and low records may vary slightly from our data, if they occured in-between our weather recording intervals... More about our weather records

Advertising

Petah Tikva Weather History for the Previous 24 Hours

Scroll right to see more
 ConditionsComfort  
Time TempWeatherWind HumidityBarometerVisibility
11:20 am
Sun, Apr 30
82 °FSunny.8 mph35%29.83 "Hg10 mi
10:50 am81 °FSunny.6 mph37%29.83 "Hg10 mi
10:20 am79 °FSunny.7 mph39%29.86 "Hg10 mi
9:50 am77 °FSunny.6 mph36%29.86 "Hg10 mi
9:20 am73 °FSunny.6 mph47%29.86 "Hg10 mi
8:50 am72 °FSunny.5 mph53%29.86 "Hg10 mi
8:20 am70 °FSunny.3 mph57%29.86 "Hg10 mi
7:50 am66 °FSunny.2 mph64%29.86 "Hg10 mi
7:20 am63 °FSunny.2 mph64%29.86 "Hg10 mi
6:50 am61 °FSunny.1 mph63%29.86 "Hg10 mi
6:20 am59 °FSunny.3 mph68%29.86 "Hg10 mi
5:50 am61 °FClear.5 mph68%29.86 "Hg10 mi
5:20 am59 °FClear.3 mph72%29.86 "Hg10 mi
4:50 am57 °FClear.2 mph67%29.86 "Hg10 mi
4:20 am57 °FClear.2 mph67%29.86 "Hg10 mi
3:50 am61 °FClear.3 mph68%29.86 "Hg10 mi
3:20 am59 °FClear.3 mph72%29.86 "Hg10 mi
2:50 am57 °FClear.5 mph72%29.86 "Hg10 mi
2:20 am61 °FClear.5 mph83%29.86 "Hg10 mi
1:50 am61 °FClear.3 mph72%29.86 "Hg10 mi
1:20 am63 °FClear.3 mph77%29.86 "Hg10 mi
12:50 am64 °FClear.2 mph78%29.86 "Hg10 mi
12:20 am63 °FClear.1 mph73%29.86 "Hg10 mi
11:50 pm
Sat, Apr 29
64 °FClear.3 mph73%29.86 "Hg10 mi
11:20 pm64 °FClear.1 mph73%29.86 "Hg10 mi
10:50 pm68 °FClear.2 mph64%29.89 "Hg10 mi
10:20 pm68 °FClear.3 mph64%29.89 "Hg10 mi
9:50 pm68 °FClear.2 mph64%29.89 "Hg10 mi
9:20 pm68 °FClear.2 mph64%29.89 "Hg10 mi
8:50 pm68 °FClear.2 mph64%29.89 "Hg10 mi
8:20 pm70 °FClear.2 mph57%29.89 "Hg10 mi
7:50 pm72 °FClear.6 mph50%29.89 "Hg10 mi
7:20 pm73 °FClear.6 mph47%29.89 "Hg10 mi
6:50 pm73 °FSunny.7 mph47%29.89 "Hg10 mi
6:20 pm75 °FSunny.8 mph47%29.86 "Hg10 mi
5:50 pm77 °FSunny.12 mph36%29.86 "Hg10 mi
5:20 pm77 °FSunny.10 mph36%29.86 "Hg10 mi
4:50 pm77 °FSunny.9 mph36%29.86 "Hg10 mi
3:50 pm79 °FSunny.12 mph34%29.89 "Hg10 mi
3:20 pm77 °FSunny.13 mph39%29.89 "Hg10 mi
2:50 pm79 °FSunny.13 mph37%29.89 "Hg10 mi
2:20 pm79 °FSunny.12 mph34%29.89 "Hg10 mi
1:50 pm79 °FSunny.10 mph34%29.92 "Hg10 mi
1:20 pm77 °FSunny.10 mph36%29.92 "Hg10 mi
12:50 pm79 °FSunny.10 mph37%29.92 "Hg10 mi
12:20 pm77 °FSunny.10 mph36%29.92 "Hg10 mi
Weather by CustomWeather, © 2017

See weather overviewHow to use our weather pages